Temperature
16 16 16 15 15 15 15 14 14 14 14 13 13 13 13 13 13 12 12 12 12 12 12 12 12 12 13 13 13 13 13 13 13 14 14 14 14 14 15 15 15 15 15
17 16 16 15 15 15 15 14 14 14 14 13 13 13 13 13 12 12 12 12 12 12 12 12 12 12 12 13 13 13 13 13 13 13 14 14 14 14 14 14 14 15 15
17 16 16 16 15 15 15 14 14 14 14 13 13 13 13 13 12 12 12 12 12 12 12 12 12 12 12 12 13 13 13 13 13 13 13 13 14 14 14 14 14 14 15
17 16 16 16 16 15 15 15 14 14 14 13 13 13 13 13 12 12 12 12 12 12 12 12 12 12 12 12 12 13 13 13 13 13 13 13 13 13 14 14 14 14 14
17 17 16 16 16 15 15 15 14 14 14 13 13 13 13 13 13 12 12 12 12 12 12 12 12 12 12 12 12 12 13 13 13 13 13 13 13 13 13 13 13 14 14
17 17 16 16 16 15 15 15 14 14 14 13 13 13 13 13 13 12 12 12 12 12 12 12 12 12 12 12 12 12 12 12 12 12 12 13 13 13 13 13 13 13 13
17 17 16 16 16 15 15 15 14 14 14 14 13 13 13 13 13 13 12 12 12 12 12 12 12 12 12 12 12 12 12 12 12 12 12 12 12 13 13 13 13 13 13
17 17 17 16 16 15 15 15 14 14 14 14 13 13 13 13 13 13 12 12 12 12 12 12 12 12 12 12 12 12 12 12 12 12 12 12 12 12 12 12 12 13 13
17 17 17 16 16 16 15 15 15 14 14 14 13 13 13 13 13 13 12 12 12 12 12 12 12 12 12 12 12 12 12 12 12 12 12 12 12 12 12 12 12 12 12
17 17 16 16 16 16 15 15 15 14 14 14 13 13 13 13 13 12 12 12 12 12 12 12 12 12 12 12 12 12 12 12 12 12 12 12 12 12 12 12 12 12 12
17 17 16 16 16 15 15 15 15 14 14 14 13 13 13 13 13 13 12 12 12 12 12 12 12 12 11 11 11 11 11 11 11 11 11 11 11 11 11 11 11 11 11
16 16 16 16 16 15 15 15 15 14 14 14 13 13 13 13 13 13 12 12 12 12 12 12 11 11 11 11 11 11 11 11 11 11 11 11 11 11 11 11 11 11 11
16 16 16 16 15 15 15 15 15 14 14 14 13 13 13 13 13 12 12 12 12 12 12 11 11 11 11 11 11 11 11 11 11 11 11 11 11 11 10 10 10 10 10
16 16 16 15 15 15 15 15 14 14 14 14 13 13 13 13 13 12 12 12 12 11 11 11 11 11 11 11 10 10 10 10 10 10 10 10 10 10 10 10 10 10 10
15 15 15 15 15 15 15 15 14 14 14 13 13 13 13 13 13 12 12 12 12 11 11 11 11 10 10 10 10 10 10 10 10 10 10 10 10 10 10 10 9 9 9
14 15 15 14 14 14 14 14 14 14 13 13 13 13 13 13 12 12 12 12 11 11 11 11 10 10 10 10 10 10 10 10 9 9 9 9 9 9 9 9 9 9 9
14 14 14 14 14 14 13 13 14 13 13 13 13 13 13 12 12 12 11 11 11 11 11 10 10 10 10 10 10 9 9 9 9 9 9 9 9 9 8 8 8 8 8
13 13 13 14 13 13 13 13 13 13 13 13 13 13 12 12 12 11 11 11 11 10 10 10 10 10 10 9 9 9 9 9 9 8 8 8 8 8 8 8 8 8 8
13 13 13 13 13 13 13 12 12 12 13 13 13 12 12 12 11 11 11 11 11 10 10 10 10 10 9 9 9 9 9 8 8 8 8 8 8 8 7 7 7 7 7
12 12 12 12 12 12 12 12 12 12 12 12 12 12 12 11 11 11 11 10 10 10 10 10 10 9 9 9 9 9 8 8 8 7 7 7 7 7 7 7 7 7 6
12 12 12 12 12 12 12 11 11 11 11 11 12 12 11 11 11 11 11 10 10 10 10 10 9 9 9 9 8 8 8 8 7 7 7 7 6 6 6 6 6 6 6
11 11 11 11 11 11 11 11 11 11 11 11 11 11 11 11 10 10 10 10 10 9 9 9 9 9 8 8 8 8 7 7 7 7 6 6 6 6 6 5 5 5 5
11 11 11 11 11 11 11 11 11 11 11 11 11 11 11 10 10 10 10 10 9 9 9 8 8 8 8 8 7 7 7 7 6 6 6 6 6 5 5 5 5 4 4
10 10 10 10 10 10 10 10 10 10 10 10 10 10 10 10 10 10 10 9 9 9 8 8 8 8 7 7 7 7 6 6 6 6 5 5 5 5 5 4 4 4 4
10 10 10 10 10 10 10 10 10 10 10 10 9 10 10 10 9 9 9 9 8 8 8 8 7 7 7 7 6 6 6 6 5 5 5 5 5 4 4 4 3 3 3
9 9 9 9 9 9 9 9 9 9 9 9 9 9 9 9 9 9 9 8 8 8 7 7 7 6 6 6 6 6 5 5 5 5 5 4 4 4 3 3 3 3 2
Wind_Speed
5 5 4 4 3 3 3 3 3 2 2 2 2 2 2 2 2 1 1 1 1 1 1 1 1 1 1 1 1 1 2 2 2 1 1 0 0 0 1 1 1 2 3
5 5 4 4 3 3 3 3 2 2 2 2 1 1 1 1 1 1 1 1 1 1 1 1 2 1 1 1 1 1 1 2 2 1 0 1 0 1 1 1 1 1 1
5 5 4 4 4 4 4 3 2 2 2 1 1 1 1 1 1 1 0 0 1 1 1 1 1 1 1 1 1 1 1 1 1 1 0 1 1 1 2 1 1 1 1
5 5 5 5 5 5 4 3 2 2 1 1 1 1 1 1 1 1 0 0 1 1 2 1 1 1 2 1 1 1 1 1 1 2 1 0 0 1 1 1 1 1 1
6 6 7 6 5 4 3 3 2 2 1 1 1 1 2 1 1 0 0 0 1 2 2 2 2 1 1 1 1 1 2 2 2 2 1 1 0 0 1 1 1 1 2
6 7 6 5 5 5 4 3 2 2 1 1 0 1 1 1 1 1 2 1 1 1 2 3 2 2 3 3 2 2 3 3 3 2 1 1 1 1 1 1 1 1 0
6 5 5 5 5 5 5 4 3 3 2 1 1 0 1 2 1 1 2 2 1 1 1 2 2 2 2 2 3 4 4 3 3 3 3 2 1 2 2 2 1 1 1
5 5 4 5 6 5 5 5 4 3 3 2 1 1 1 1 0 1 3 2 2 1 1 1 1 2 2 2 2 3 4 3 2 2 2 1 1 1 2 2 3 2 2
5 5 6 6 6 6 7 6 5 4 3 3 2 2 1 2 1 2 3 2 2 1 2 2 1 1 2 3 3 3 3 3 4 5 5 4 4 3 3 3 3 2 1
6 6 6 5 7 8 8 6 4 5 5 4 3 2 2 2 1 2 3 2 1 1 2 2 2 2 3 4 3 3 2 1 2 4 5 6 6 7 6 3 2 2 2
5 4 5 5 6 7 6 5 5 5 5 4 3 2 2 2 2 3 4 3 2 1 1 1 2 3 4 4 4 3 2 3 3 4 4 4 5 5 5 4 3 2 2
3 4 5 5 5 5 6 5 5 6 6 5 4 2 2 2 2 3 4 4 5 3 1 0 1 4 5 5 4 4 5 5 3 4 4 4 3 3 3 3 5 6 5
2 3 4 4 4 5 6 7 5 6 6 5 5 4 3 2 2 4 5 5 6 4 2 3 4 5 5 4 5 5 5 4 4 3 3 2 1 2 2 2 3 4 6
3 3 3 3 4 4 5 6 6 7 7 6 6 5 4 3 3 3 3 3 4 4 3 4 6 6 5 5 5 4 3 3 3 3 2 1 2 3 3 2 2 2 3
3 3 3 3 4 4 5 5 7 7 8 8 7 7 6 6 7 9 7 5 5 5 5 3 3 3 3 3 3 3 3 3 3 2 2 2 2 3 3 2 2 2 2
3 3 3 3 3 3 4 2 4 6 8 10 10 9 7 8 8 10 11 10 10 11 6 3 2 2 3 2 2 2 2 2 1 2 2 2 2 2 2 2 3 3 2
5 5 4 4 4 4 5 5 3 2 3 6 9 10 10 10 10 11 11 10 10 10 5 4 4 4 3 3 2 2 1 1 1 2 2 2 2 2 2 2 2 2 2
5 6 5 5 5 5 6 6 6 5 4 3 4 8 10 11 11 11 12 9 5 5 4 5 5 5 4 4 3 3 2 2 2 2 2 2 2 2 2 2 2 1 1
5 4 5 5 5 5 5 5 5 6 5 4 2 3 7 8 9 11 12 6 6 6 5 5 5 5 5 4 4 3 3 3 3 2 2 2 2 2 2 2 1 2 1
5 7 5 4 4 5 5 5 6 6 6 6 6 5 5 5 5 6 6 6 6 6 6 6 6 6 5 5 5 4 4 3 3 3 2 2 2 2 2 2 1 1 1
5 6 7 5 5 6 6 6 7 7 7 7 7 7 11 7 8 9 8 7 7 7 7 7 6 6 6 5 5 5 5 4 3 3 3 2 2 2 2 2 1 1 1
5 6 5 5 5 6 6 6 7 7 7 7 5 6 12 7 7 7 8 8 7 7 7 7 7 6 7 7 7 7 6 5 4 4 3 3 2 2 2 2 1 1 1
6 6 6 6 5 6 6 6 7 7 7 7 6 6 7 7 8 8 8 8 7 7 7 7 7 6 6 7 7 7 7 7 6 5 5 4 3 3 2 2 1 1 0
6 7 7 7 6 6 7 7 7 7 7 7 7 7 7 8 8 8 8 7 7 7 7 8 8 9 10 8 7 8 7 8 7 6 6 5 4 3 2 2 2 1 0
6 6 7 7 7 7 7 7 7 7 7 7 7 7 7 7 7 7 7 7 8 8 9 9 9 10 12 11 10 9 10 10 9 7 6 5 5 4 3 2 2 1 0
7 7 7 6 7 7 7 8 8 8 8 7 7 7 7 8 7 7 7 7 8 8 8 8 10 12 12 12 12 13 12 11 10 9 7 5 4 4 3 2 2 1 1
Wind_Direction
196 198 197 201 201 197 207 227 239 260 278 288 294 308 322 333 339 352 328 331 331 329 330 290 286 263 253 242 201 191 194 181 204 263 274 299 38 82 73 100 157 177 191
196 191 199 196 189 200 219 230 233 251 269 279 299 318 322 328 336 349 322 335 319 323 312 300 294 281 266 252 208 205 204 197 193 212 309 10 60 123 107 106 110 144 172
186 187 192 194 197 211 221 222 224 237 263 288 326 322 316 322 333 321 273 333 328 318 315 294 290 312 298 278 239 225 216 192 188 172 192 30 30 72 78 72 75 62 80
185 189 198 205 207 211 210 207 215 218 228 257 277 293 300 311 325 322 12 30 356 345 342 330 302 257 259 256 248 232 189 144 136 139 130 74 34 32 102 94 66 48 45
190 201 211 208 199 195 196 203 208 208 215 228 254 320 322 305 281 259 244 103 32 356 348 341 328 313 289 250 210 194 165 144 135 132 125 106 67 77 146 112 119 76 39
201 213 209 193 188 191 195 196 195 203 208 168 215 303 326 305 314 153 139 113 75 33 352 339 335 347 355 20 47 110 147 154 160 149 141 150 197 217 160 136 138 116 60
207 213 203 194 194 197 191 183 194 202 187 186 220 247 294 298 313 109 125 116 95 44 358 350 4 15 23 48 50 56 64 81 138 153 147 180 197 212 173 150 154 143 168
207 210 203 197 199 192 183 191 199 193 188 195 201 218 263 295 240 124 123 107 93 45 12 3 12 1 28 92 86 69 58 49 63 98 127 158 211 207 179 169 160 130 83
217 220 212 202 198 190 193 199 197 186 187 188 186 187 209 285 253 160 131 105 88 28 6 21 40 17 25 98 102 92 70 48 55 72 79 67 59 70 110 117 121 121 101
227 225 217 206 201 199 200 197 192 185 189 184 185 193 201 248 237 171 150 130 115 33 8 10 30 58 59 93 106 112 97 46 57 56 52 47 49 55 63 87 134 137 136
231 217 207 207 209 203 194 189 182 181 179 182 185 200 209 233 219 176 159 152 164 144 65 3 14 58 76 88 97 107 133 123 92 81 63 49 46 47 46 52 64 105 132
215 212 211 208 208 195 182 184 180 176 178 188 188 205 233 243 213 190 172 167 162 152 169 216 74 80 82 83 88 90 102 103 94 85 71 51 41 38 39 55 64 69 74
213 219 219 208 206 188 182 183 179 179 184 192 192 206 223 227 219 189 175 168 162 158 160 130 106 88 82 73 74 84 89 92 96 93 86 54 19 21 47 63 57 63 58
218 230 218 205 206 196 191 188 187 189 192 195 198 206 211 210 209 195 180 167 151 142 125 107 96 85 79 73 68 66 70 95 110 107 103 61 47 50 50 49 55 48 56
225 224 220 212 206 201 200 203 202 206 198 197 204 199 195 210 215 192 176 177 173 162 133 97 80 79 80 69 62 59 58 73 86 81 90 80 66 63 48 41 55 63 75
224 229 221 215 213 204 198 220 233 224 219 213 207 200 209 208 196 185 184 180 169 155 135 134 146 145 146 142 126 98 74 75 84 98 98 99 94 85 69 57 62 76 77
223 228 226 215 209 211 204 200 217 251 225 217 210 207 207 200 191 182 177 169 163 153 148 166 172 174 171 160 152 144 141 129 117 110 109 110 110 101 93 81 76 74 66
230 227 227 220 212 213 214 211 205 203 213 234 222 210 204 197 188 180 165 146 152 163 175 179 181 177 171 168 166 161 149 127 114 112 107 104 109 110 103 94 90 98 81
229 227 227 224 218 217 216 212 210 208 209 212 212 211 197 186 180 176 163 166 178 186 189 184 180 175 172 169 166 160 153 147 138 129 121 115 115 111 105 98 92 75 66
232 238 233 220 216 216 214 212 212 210 209 207 206 202 175 161 175 182 187 187 186 188 186 184 181 176 172 168 163 156 149 145 141 133 131 125 119 119 124 119 108 90 52
232 233 232 228 219 218 217 218 216 211 212 215 216 204 188 190 193 192 193 194 193 191 185 182 179 175 171 166 163 160 158 158 157 152 146 139 132 125 121 116 107 93 68
227 225 223 225 224 224 225 221 217 215 214 215 218 210 199 197 196 195 197 198 195 189 182 177 178 178 175 174 171 166 165 166 167 162 155 149 142 135 129 117 105 88 69
229 228 227 228 228 230 229 223 218 216 216 214 206 200 199 204 203 200 198 194 187 182 176 173 171 171 173 174 174 171 172 178 179 171 163 157 151 149 144 140 140 129 113
233 231 229 228 226 226 226 225 219 216 214 211 208 205 204 204 204 201 195 186 180 178 175 175 174 174 171 171 171 173 174 173 170 171 164 160 158 156 151 147 151 161 175
233 232 231 229 227 227 228 224 219 215 213 212 210 206 204 202 199 196 188 179 174 176 175 173 173 173 173 170 169 169 169 166 164 162 159 156 156 158 158 159 161 160 198
233 233 231 231 229 228 226 221 218 215 213 212 210 204 201 198 194 188 182 176 174 173 172 173 174 173 171 173 171 167 166 166 165 163 160 156 154 159 159 160 163 168 192
Height
1501 1502 1502 1503 1503 1503 1502 1502 1501 1500 1499 1498 1496 1495 1494 1493 1492 1491 1490 1489 1489 1488 1488 1487 1487 1487 1487 1488 1488 1488 1489 1489 1490 1491 1492 1493 1494 1496 1498 1499 1502 1504 1506
1499 1500 1501 1501 1501 1501 1501 1500 1500 1499 1498 1497 1496 1495 1494 1493 1492 1491 1490 1489 1488 1488 1487 1487 1486 1486 1486 1487 1487 1487 1488 1488 1489 1489 1490 1491 1493 1494 1496 1498 1499 1501 1504
1497 1498 1498 1499 1499 1499 1499 1499 1498 1498 1497 1496 1495 1494 1493 1492 1491 1491 1490 1489 1488 1487 1487 1486 1486 1485 1485 1486 1486 1486 1487 1487 1487 1488 1489 1490 1491 1492 1494 1496 1497 1499 1501
1494 1495 1496 1497 1497 1497 1497 1497 1497 1496 1496 1495 1494 1493 1492 1492 1491 1490 1490 1489 1488 1487 1486 1486 1485 1485 1485 1485 1485 1485 1486 1486 1486 1487 1488 1489 1490 1491 1493 1494 1495 1497 1499
1491 1492 1493 1494 1495 1495 1495 1495 1495 1495 1494 1494 1493 1492 1492 1491 1490 1490 1489 1488 1488 1487 1486 1486 1485 1484 1484 1484 1484 1485 1485 1485 1486 1486 1487 1488 1489 1490 1491 1492 1493 1495 1496
1489 1490 1491 1492 1492 1493 1493 1493 1493 1493 1493 1492 1492 1491 1491 1490 1490 1489 1489 1488 1487 1487 1486 1486 1485 1484 1484 1484 1484 1484 1484 1485 1485 1485 1486 1487 1488 1489 1489 1490 1492 1493 1495
1486 1487 1488 1489 1489 1490 1491 1491 1491 1491 1491 1491 1491 1490 1490 1489 1489 1488 1488 1487 1487 1486 1486 1485 1485 1484 1484 1483 1483 1483 1484 1484 1485 1485 1485 1486 1487 1488 1488 1489 1490 1491 1493
1483 1484 1484 1485 1486 1487 1488 1488 1489 1489 1489 1489 1489 1489 1489 1488 1488 1488 1487 1487 1486 1486 1485 1485 1485 1484 1484 1484 1483 1483 1484 1484 1484 1484 1485 1485 1485 1486 1487 1488 1489 1490 1492
1479 1480 1481 1482 1483 1483 1484 1485 1486 1486 1487 1487 1487 1487 1487 1487 1487 1486 1486 1486 1485 1485 1485 1484 1484 1484 1484 1483 1483 1483 1483 1484 1484 1484 1484 1484 1484 1485 1486 1487 1488 1489 1490
1476 1477 1478 1478 1479 1480 1481 1482 1483 1483 1484 1484 1485 1485 1485 1485 1485 1485 1485 1484 1484 1484 1484 1483 1483 1483 1483 1483 1483 1483 1483 1483 1483 1483 1483 1483 1483 1484 1484 1486 1487 1488 1489
1473 1473 1474 1475 1475 1476 1477 1478 1479 1480 1481 1481 1482 1482 1483 1483 1483 1483 1483 1483 1483 1483 1482 1482 1482 1482 1482 1482 1482 1482 1482 1483 1483 1483 1483 1483 1483 1483 1484 1484 1485 1486 1487
1469 1469 1470 1471 1471 1472 1473 1474 1475 1476 1477 1477 1478 1479 1480 1480 1481 1481 1481 1481 1481 1481 1481 1481 1481 1481 1481 1481 1481 1481 1482 1482 1482 1482 1482 1482 1482 1482 1483 1483 1484 1485 1486
1465 1465 1466 1466 1467 1468 1469 1470 1471 1472 1472 1473 1474 1475 1476 1477 1478 1478 1479 1479 1479 1480 1480 1480 1480 1480 1480 1480 1480 1480 1481 1481 1481 1481 1481 1481 1482 1482 1482 1483 1483 1484 1484
1461 1461 1462 1462 1463 1464 1465 1466 1466 1467 1468 1469 1470 1471 1472 1473 1474 1475 1476 1477 1477 1477 1478 1478 1478 1478 1479 1479 1479 1479 1479 1479 1480 1480 1480 1481 1481 1481 1481 1482 1482 1482 1483
1457 1457 1458 1458 1459 1459 1460 1461 1462 1463 1464 1465 1466 1467 1468 1469 1471 1472 1473 1474 1474 1475 1476 1476 1476 1477 1477 1477 1477 1478 1478 1478 1478 1479 1479 1479 1480 1480 1480 1480 1480 1481 1481
1453 1453 1453 1453 1454 1454 1455 1456 1457 1459 1460 1461 1462 1463 1464 1466 1467 1468 1469 1471 1472 1472 1473 1473 1474 1474 1475 1475 1476 1476 1476 1477 1477 1477 1478 1478 1478 1479 1479 1479 1479 1479 1479
1448 1448 1448 1448 1449 1450 1450 1451 1451 1453 1454 1455 1456 1458 1459 1461 1463 1464 1466 1467 1468 1469 1469 1470 1471 1472 1472 1473 1474 1474 1475 1475 1475 1476 1476 1476 1477 1477 1477 1477 1477 1477 1477
1444 1444 1444 1443 1444 1444 1445 1446 1447 1447 1448 1449 1451 1453 1454 1456 1458 1459 1461 1463 1463 1464 1465 1466 1467 1468 1469 1470 1471 1472 1472 1473 1473 1474 1474 1475 1475 1475 1475 1476 1475 1475 1475
1438 1438 1438 1438 1439 1439 1440 1440 1441 1442 1443 1444 1446 1447 1449 1450 1452 1454 1456 1457 1458 1460 1461 1462 1464 1465 1466 1467 1468 1469 1470 1470 1471 1471 1472 1472 1473 1473 1473 1473 1473 1473 1473
1433 1433 1433 1433 1433 1434 1434 1435 1435 1436 1437 1438 1439 1441 1443 1445 1446 1448 1450 1452 1453 1455 1457 1458 1459 1461 1462 1464 1465 1466 1467 1467 1468 1469 1469 1470 1470 1471 1471 1471 1471 1471 1470
1427 1426 1426 1427 1427 1427 1428 1429 1430 1430 1431 1432 1434 1436 1437 1439 1441 1442 1444 1446 1448 1450 1452 1453 1455 1457 1458 1460 1461 1462 1463 1464 1465 1466 1466 1467 1467 1468 1468 1468 1468 1468 1468
1421 1420 1420 1420 1420 1421 1422 1423 1424 1424 1425 1426 1428 1430 1431 1433 1435 1437 1439 1441 1443 1445 1447 1449 1450 1452 1454 1455 1457 1458 1459 1460 1462 1462 1463 1464 1464 1465 1465 1465 1465 1465 1465
1415 1414 1414 1414 1414 1415 1416 1416 1417 1418 1419 1420 1422 1423 1425 1426 1428 1431 1433 1435 1437 1440 1442 1444 1446 1447 1449 1451 1452 1454 1455 1457 1458 1459 1460 1460 1461 1462 1462 1462 1462 1462 1462
1408 1408 1407 1407 1408 1408 1409 1409 1410 1411 1413 1414 1415 1417 1419 1420 1422 1425 1427 1429 1432 1434 1436 1439 1441 1443 1445 1447 1448 1450 1451 1453 1454 1455 1456 1457 1457 1458 1458 1459 1459 1459 1459
1402 1401 1401 1400 1401 1401 1402 1403 1403 1405 1406 1407 1409 1411 1413 1415 1416 1419 1421 1423 1426 1429 1431 1433 1436 1438 1440 1442 1444 1445 1447 1449 1450 1451 1452 1453 1454 1454 1455 1455 1455 1455 1455
1396 1394 1394 1393 1394 1394 1395 1396 1397 1398 1399 1401 1403 1404 1406 1408 1410 1413 1415 1417 1420 1423 1425 1428 1430 1433 1435 1437 1439 1441 1443 1444 1446 1447 1448 1449 1450 1451 1451 1451 1452 1452 1452